Race Results for
Greenbrier Challenge
Frederick/Hagerstown, MD
(Event Information)
View By:
Cross Country on 04/30/2006

Note: Ranking points are NOT upgrade points. An explanation of ranking points can be found here.


Men - SP - Junior - 1-18

 Place Points NameCity, StateTime USAC #BibTeam
1540.00Zach Adams   Shippensburg, PA1:05:50.93 218549  750 Yellow Breeches Racing
2Tim Darwick   1:13:08.54  753 NCVC/Inova Health System
3John Kylis   1:14:55.25  755 
4James Wittwer   1:14:56.57  754 Charlottesville Racing Club
5Timothy Reinhart   1:16:14.60  751 
DNFStephen Seeber   DNF  752 Mountain Bikers OF Michaeux

Men - SP - Senior - 19-29

 Place Points NameCity, StateTime USAC #BibTeam
1540.00Mitchell Clement   Ledyard, CT1:34:39.23 199319  440 US Naval Academy Cycling
2Nick Zohdi   1:37:13.44  455 Immediate Mortgage
3Dominic Nudy   1:37:24.56  451 Spokes
4549.38Thomas Ayd   Salisbury, MD1:41:23.58 239832  441 Shore Velocity
5Calvin Cheung   1:41:40.52  443 
6555.62Finith Jernigan   Chapel Hill, NC1:43:59.34 238276  446 Shore Velocity
7Cory Smith   1:46:58.87  449 
8561.88Timothy Whittemore   Catonsville, MD1:48:15.70 38092  454 ALL American Bicycle Center
9Nick Pejeau   1:48:32.21  447 Bicycle Station Columbus
10568.12Jeremy Johnson   Ashburn, VA1:50:36.71 227714  457 
11Steve Harris   1:51:09.46  445 Team Donkey
12T.R. Harris   1:51:39.94  456 
13Jason Binder   1:52:57.07  452 Bike Line Corp
14Steve Solt   1:54:58.80  453 South MTN Cycles
15John Critchfield   1:59:05.20  458 
16Benjamin Corbran   2:03:40.35  444 
17Milton Rojas   2:20:11.67  450 
DNFMiddleton Braun   DNF  442 
DNFSteven Sandor   DNF  448 

Men - SP - Master - 30-34

 Place Points NameCity, StateTime USAC #BibTeam
1Bryan Butts   1:34:18.61  517 SPBRC
2Joseph Ashman   1:36:10.37  508 
3545.56zachary culbertson   Manassas, VA1:36:14.28 243585  501 
4548.33Frank Armetta   Northampton, PA1:37:08.60 244956  500 Saucon Valley Bikes
5551.11C Aaron Huether   Newport News, VA1:38:01.93 191925  504 H.C.C/Contes
6Matthew Donahue   1:39:41.61  502 City Bikes
7556.67Shawn Tevendale   Charlottesville, VA1:40:50.00 218020  507 Bike Factory
8Doug Dupuie   1:41:32.85  512 
9Constantinos Tombras   1:41:41.31  520 Squadra Coppi
10Mike Klasmeier   1:42:03.17  516 City Bikes
11Gregory Thomas   1:43:12.01  519 
12570.56Joe Lillibridge   Finksburg, MD1:43:56.39 241286  510 LSV/Kelly Benefit Strategies
13573.33Michael Scardaville   Washington, DC1:50:14.72 161370  505 City Bikes/Dcmtb.com
14576.11Nate Seymour   Alexandria, VA1:52:45.15 579  506 Potomac Velo Club
15578.89Joey Greegor   Fishers, IN1:52:48.04 158041  503 Dvelo
16Paul Bayne   1:53:29.43  509 LSV/Kelly Benefit Strategies
17Michael Mazzarese   1:53:51.89  511 
18Joseph Gore   1:53:52.06  513 MT Nittany Wheelworks
19Jordan Cross   2:01:44.84  518 Squadra Coppi
DNFTim Knopp   DNF  515 Bike Line Corp
DNFKen Roth   DNF  514 

Men - SP - Master - 35-39

 Place Points NameCity, StateTime USAC #BibTeam
1540.00Erik Leaver   Silver Spring, MD1:35:29.51 136519  558 NCVC/Inova Health System
2543.12Karl Connolly   Baltimore, MD1:36:39.34 239736  552 LSV Kelly
3546.25Robert Clark   Fort Collins, CO1:40:09.90 99626  551 Diamond Peak Racing
4Robert Campbell   1:41:14.36  550 NCVC/Inova Health System
5Chuck Buczeskie   1:42:44.87  567 Yellow Breeches Racing
6Gary Roberts   1:46:01.36  561 FSC Cycles
7Tom Vaughn   1:46:37.62  560 
8Sid Rappe   1:47:45.31  563 PBR
9Chris Shelley   1:51:46.83  559 Bike Factory
10Ken Warner   1:52:57.43  566 Idyllwild Cycling
11David Kegley   1:53:36.45  564 Squadra Balloow Knotti
12Peter Fraker   1:53:55.02  557 Plum Grove Cyclery
13577.50Matthew Niemerski   Takoma Park, MD1:55:49.55 208147  554 Squadra Coppi/IM Saab
14Don Dowgiallo   1:58:07.04  568 
15583.75Chris Doetschman   Harford, NY1:58:32.27 209284  553 Foresters
16Matt O'byrne   2:05:40.85  565 
17Matthew Hacker   2:13:26.41  562 
DNFLee Diehr   Sterling, VADNF 205167  556 Pedal Shop/OLD Dominion Brewing Company
DNFJoel Wilson   DNF  555 
DNFWilliam Davis   DNF  569 

Men - SP - Master - 40-44

 Place Points NameCity, StateTime USAC #BibTeam
1473.02Neal Sapp   Chadds Ford, PA1:34:28.72 245112  610 Sapp Performance
2John Simon   1:41:56.21  608 THE Bike Lane
3486.78John Nusbaum   Amissville, VA1:42:38.50 221949  600 Team Muddy Run
4493.66Kevin Dillard   Washington, DC1:44:18.46 43577  617 NCVC/Inova Health System
5Bill Marciniak   1:44:18.64  613 
6Paul Patarini   1:46:33.03  615 
7514.31Joel Moats   Shippensburg, PA1:46:47.65 246115  611 MBM
8521.19Edward Fisher   Hallwood, VA1:49:57.63 207975  603 Shorevelocity
9Kevin Scallan   1:50:01.25  602 
10Thom Moore   1:51:38.61  607 Potomac Velo Club
11Ron Baker   1:51:39.67  612 
12Robert Smith   1:51:56.18  619 
13Scott Stahl   1:53:46.87  618 Seavs
14David Hamilton   1:57:55.49  604 
15Dave Vannier   1:59:28.22  609 City Bikes
16Stephen Leitner   2:02:54.18  605 
17Mick LYNN   2:04:35.84  606 
18Ronald Dahart   2:07:54.57  620 
DNFJohn Kula   DNF  616 
DNFVaughn Davies   DNF  614 

Men - SP - Master - 45-49

 Place Points NameCity, StateTime USAC #BibTeam
1Jim Bronson   1:40:11.94  657 LSV/Kelly Benefit Strategies
2Michael Malone   1:41:33.45  660 VCB Race Pace
3Mark Laser   1:45:59.28  653 Yellow Breeches Racing
4Mark Howard   1:48:23.15  654 
5558.18Alan Muldawer   Olney, MD1:50:26.63 25346  651 ALL American Bike Club
6562.73Peter Bell   Shady Side, MD1:51:15.17 235181  658 Bayside Velo
7Mike Pattisal   1:54:11.87  652 Potomac Velo Club
8571.82Michael Kinney   Manassas, VA1:55:56.45 229002  650 Potomac Velo Club
9James Kylis   1:57:39.21  663 
10Jim Dewald   2:03:41.48  659 Skyline Bikes
11Joseph Bonner   2:11:47.37  661 
12Gary Kelly   2:32:13.66  655 Shirks
DNFCraig Shombaugh   DNF  656 
DNFJohn Bliss   Boulder, CODNS 83145  662 

Men - SP - Master - 50-99

 Place Points NameCity, StateTime USAC #BibTeam
1David Simpson   1:09:15.52  739 Potomac Velo Club
2550.00Gil Goodrich   Three Rivers, CA1:12:14.26 13682  741 Filz Built
3Larry Dell   1:15:33.14  742 
4Stephen Seeber   1:21:09.53  736 Mountain Bikers OF Michaeux
5Scott Scudamore   1:25:58.71  735 PVC/THE Bike Lane
6590.00Jerald Bliton   Beaver Falls, PA1:41:09.95 3956  740 Team TRI/Kenda
DNFRandall Smith   DNF  737 Potomac Velo Club
DNFLarry Dell   DNF  747 Antieam Velo

Men - SM - Senior

 Place Points NameCity, StateTime USAC #BibTeam
1412.51Michael Simonson   Oxford, MI1:44:42.99 199958  40 
2425.69Matthew Bailey   Newport News, VA1:45:53.78 170803  39 Eastcoasters
3438.87Ray Adams   Harrisburg, PA1:49:48.03 1168  34 Visitpa.com
4452.06David Wood   Hendersonville, NC1:51:35.29 205937  41 Bear Naked/Cannondale Mountain Bike Team
5465.24Aaron Snyder   State College, PA1:52:51.21 204182  42 Wild Blues
6478.42Spencer Powlison   Boulder, CO1:55:20.04 161897  38 
7491.60Joey Riddle   Elkins, WV1:55:35.31 181299  33 Vicious Cycles/Fat Tire Cycle
8504.79Todd Reighley   Blacksburg, VA1:56:47.61 87974  32 Kona/EL Toreo
9517.97Andrew Gorski   Allison Park, PA1:57:37.99 203109  30 Agisko Viner P/B Kinetic-Koffee.com
10531.15Jordan Kahlenberg   Morrisville Pa2:05:09.18 152298  35 Breakaway Racing
11544.33Christopher Newell   Reisterstown, MD2:10:45.97 25976  31 Hunt Valley Bicycle Club/HVB
12557.52Robert Lichtenwalner   Nazareth, PA2:13:09.82 156385  36 Bare Naked/Cannondale
DNFMatt Miller   Nazareth, PADNF 206833  37 Giant

Men - Single Speed - Senior

 Place Points NameCity, StateTime USAC #BibTeam
1463.77Weston Schempf   Rockville, MD1:24:39.85 122030  351 Visitpa.com
2469.51Tim Dougherty   Glenside, PA1:29:18.75 73274  362 Bare Naked/Cannondale
3Bart Wellisley   1:32:55.26  365 Cannondale Midwest Racing
4Wayne Langbein   1:33:35.86  347 Dvelo
5David Tevendale   1:34:51.72  353 Redstone Cyclery
6492.46Jesse Stevens   Huntington, WV1:35:11.83 209456  358 Bikeman.com
7Frank Febbraro   1:37:19.84  345 THE Bike Lane
8George Schneider   1:38:06.59  359 SWC
9Michael Pearce   1:39:06.76  349 N/A
10Larry Camp   1:39:07.68  341 Bike Lane
11521.15Albert Greene   Woodbridge, VA1:39:18.17 218663  346 Yellow Breeches Racing
12Nick Daniels   1:40:01.87  366 Pedal Shop OLD Dominion Brewery
13532.62Skip Huffman   Roanoke, VA1:42:26.38 210927  356 EL Toreo
14Chris Larkin   1:42:32.28  364 
15544.10James Ambagis   Newark, DE1:44:34.09 178451  340 Fort Frames
16Joe Penano   1:45:31.27  350 Bike Lane
17Pierre Martel   1:46:18.14  361 THE Bike Lane
18Greg Coleman   1:46:39.70  357 
19Ricky Deleyos   1:48:44.20  342 City Bikes
20Brian Poochigian   1:51:17.94  363 City Bikes
21Max Miller   1:54:39.63  369 
22Warren Wilkerson   1:54:43.17  355 
23590.00Nate Seymour   Alexandria, VA1:58:02.24 579  352 Potomac Velo Club
DNFSteven Dontigny   Falls Church, VADNF 102568  343 THE Bike Lane
DNFJonathan Wheaton   DNF  354 More
DNFBuddy Briggs   Newark, DEDNF 193161  360 Spot Brand
DNFJoseph Calman   DNF  368 
DNFChristopher Merriam   Washington, DCDNF 180319  348 
DNFChristopher Beck   BaltimoreDNF 141204  367 LSV/Trek/VW
DNFGlen Evans   DNS  344 

Men - EX - Junior - 1-18

 Place Points NameCity, StateTime USAC #BibTeam
1540.00Taylor McClain   Wexford, PA1:29:22.43 207697  321 Visitpa.com
2552.50Eli Smith   York, PA1:30:55.81 225345  325 Wild Blues
3565.00Matthew Keiper   Warrenton, VA1:36:25.24 156519  320 NCVC/Inova Health System
4577.50Morgan Gerlak   Baltimore, MD1:51:47.39 194574  324 C3/ADG/Joe's
5590.00B Jacob Sitler   Wrightsville, PA1:57:38.95 217193  322 Gung HO Bikes
DNFMatthew Nudy   Fleetwood, PADNF 240343  323 Vortex Cycling

Men - EX - Senior - 19-29

 Place Points NameCity, StateTime USAC #BibTeam
1540.00Andrew Alesio   Zieglerville, PA1:51:21.22 233011  114 Giant
2544.17Dylan Alesio   Zieglerville, PA1:57:17.04 233553  115 Giant
3548.33David Fahnestock   Ellicott City, MD1:58:29.00 73221  103 LSV/Kelly Benefit Strategies
4552.50Adam Weiford   Elkins, WV2:01:05.64 96827  107 
5556.67Greg Wittwer   Richmond, VA2:05:31.10 111687  108 Charlottesville Racing Club
6560.83Shane Gouldthread   Weedville, PA2:05:35.95 220647  105 KHS Factory R.a.c.e.r Team
7565.00David Payne   Laplata, MD2:08:16.41 239790  113 Bike Doctor OF Waldorf
8569.17John Davis   Lakewood, OH2:10:01.15 232385  101 Endura Factory Team/Pista Elite
9573.33Mattison Brady   Washington, DC2:10:51.51 223221  100 
10577.50John Mcclurg   Harrison City, PA2:10:57.06 227766  110 Pittsburgh PRO Bicycles
11581.67Steven Gordon   Warrenton, VA2:11:22.51 224401  104 
12585.83Paul Davis   Midvale, UT2:17:20.47 196139  102 Tripower
13Matt FRY   2:27:12.66  111 
DNFJustin Raynes   Bozeman, MTDNF 197456  112 Bikes Unlimited
DNFChris DeCarlo   Glenmoore, PADNF 223509  109 
DNFMatthew Potter   Lawrenceville, PADNF 231079  106 Oswald Cycle Works

Men - EX - Master - 30-39

 Place Points NameCity, StateTime USAC #BibTeam
1Jonathan Gabor   1:52:24.10  156 Saucon Valley Bikes
2542.94Eric Roman   State College, PA1:55:42.10 100661  169 Gary Fisher/Bontrager
3545.88Jeremy Getgen   Owings, MD1:55:55.88 144253  161 
4548.82Evan Ellicott   Riverdale, MD1:56:45.10 157667  150 City Bikes
5551.76Todd Rennie   Charleston, WV1:58:24.33 210122  164 Dirt Bean.com
6554.71Joe Fritsch   Olney, MD2:00:44.37 12446  151 College Park Bicycles
7557.65Jed Prentice   Takoma Park, MD2:03:02.37 208680  153 College Park Bicycles
8560.59Jonathan Posner   Catonsville, MD2:05:38.93 129804  155 Trek/VW
9563.53Scott Wilson   Doylestown, PA2:05:56.23 110662  163 Doylestown Investment Group
10566.47Johnny May   Baltimore, MD2:07:00.21 140403  152 Charm City Cycles
11569.41Andres Wright   Frederick, MD2:08:27.49 109451  171 NCVC
12572.35Timothy Cusick   Dover, PA2:12:36.73 205828  167 
13575.29Jason Mulveny   Washington, DC2:13:10.33 173644  172 NCVC
14578.24Kent Baake   Alexandria, VA2:13:12.99 152405  158 City Bikes
15581.18Steven Schwarz   Rockville, MD2:17:15.05 145836  166 IF Grassroots
16584.12Gregory Sampson   Galesville, MD2:19:37.42 234356  154 
17William Davis   2:20:45.10  170 
18590.00Kevin Causak   Lebanon, PA2:35:47.00 6489  168 Wild Blues
DNFJason Beckley   Clifton Heights, PADNF 3122  160 Germantown Cycles
DNFChristopher Andrews   Denver, CODNF 111273  162 NCVC-Inova Health Systems
DNFJudd Milne   Reston, VADNF 113729  159 Squadra Coppi/Imsaab
DNFMatthew Michel   Oak Hill, VADNF 89155  157 NCVC/Inova Health System
DNFZachary Blaser   Allentown, PADNF 85186  165 Visitpa.com

Men - EX - Master - 40-49

 Place Points NameCity, StateTime USAC #BibTeam
1484.29Michael Laub   Enola, PA1:26:16.60 230122  219 Wild Blues
2489.86Bernie Shiao   Sparks Glencoe, MD1:27:27.96 32463  218 LSV/Kelly Benefit Strategies
3495.42Ron Huebner   Waterford, VA1:29:04.73 145895  205 Potomac Velo Club
4500.98Roger Masse   Bethesda, MD1:30:29.21 22842  212 ALL American Bicycle Club
5506.55Mark Kutney   Earlysville, VA1:31:45.91 211474  210 Van Dessel Factory Team
6512.11Mark Elsasser   Philadelphia, PA1:33:45.35 10735  202 
7517.68Christopher Clarke   Washington, DC1:34:02.44 7063  200 DCMTB/Citybikes
8523.24John Keller   Ellicott City, MD1:36:05.08 214444  209 
9528.80Scott Reynolds   Pipersville, PA1:37:50.77 124693  217 Guy's Racing
10534.37Ken Jefferson   Newport News, VA1:38:34.61 17722  207 JRVS/Casey Auto Group
11539.93John Bliss   Boulder, CO1:38:48.58 83145  216 
12545.49James Hepp   Wellsboro, PA1:39:07.94 231078  204 Oswald Cycle Works
13551.06Mark Lewis   Falls Church, VA1:39:09.45 166840  211 
14556.62Kevin Lee   Glenn Dale, MD1:39:31.70 20729  221 Racepace
15562.18James Mitchell   Warrenton, VA1:40:20.46 152623  213 Potomac Velo Club
16567.75Cary Hunter   Paeonian Springs, VA1:41:48.21 176403  206 Potomac Velo Club
17573.31Denny Boyle   Eldersburg, MD1:42:12.01 47323  220 VCB/Race Pace
18578.87Paul Hardy   Fairfax, VA1:42:28.43 129770  203 THE Bike Lane
19584.44David Jones   Rockville, MD1:46:50.02 156342  208 Ncvcinovahealthsystem
20590.00Eric Sloman   Ashburn, VA1:52:46.39 123134  215 Potomac Velo
DNFNeal Sapp   Chadds Ford, PADNF 245112  214 Sapp Performance
DNFKevin Dillard   Washington, DCDNF 43577  201 NCVC/Inova Health System

Men - EX - Master - 50-99

 Place Points NameCity, StateTime USAC #BibTeam
1540.00Timothy Messersmith   York, PA1:31:13.13 128500  303 Trek/VW
2Mark Wigfield   1:54:49.16  304 
3573.33John Warfel   Millersville, PA1:54:53.60 145457  302 Shirk's
4590.00Clifton Calvert   Brooklyn, MD2:07:46.92 5887  300 Baynesville Cycle
DNFRandall Root   Sterling, VADNF 30526  301 Team Snow Valley

Men - Clydesdale - Senior

 Place Points NameCity, StateTime USAC #BibTeam
1Christopher Redlack   1:42:18.03  382 Chico's Bail Bonds
2Joel Gwadz   1:44:56.78  384 City Bikes
3Douglas Pepelko   1:50:13.07  381 Applied Security
4Robert Georgantas   1:52:32.97  380 
5Mark Voelkner   2:23:17.88  383 

Men - BG - Junior - 1-10

 Place Points NameCity, StateTime USAC #BibTeam
1Caleb Merriam   1:03:50.22  90 
2Elliott Scott   Havre De Grace, MD1:04:56.80 242936  91 Team Ascent

Men - BG - Junior - 11-12

 Place Points NameCity, StateTime USAC #BibTeam
1Sam O'keefe   0:42:45.47  428 Charm City Cycling
2Avery Wilson   Boulder, CO1:03:51.24 207986  427 NCVC/Inova Health System

Men - BG - Junior - 13-14

 Place Points NameCity, StateTime USAC #BibTeam
1Cai Clothier   0:39:01.46  790 Bike Minicom
2Nate Simpson   0:55:53.16  791 

Men - BG - Junior - 15-16

 Place Points NameCity, StateTime USAC #BibTeam
1John Kania   0:37:08.14  991 
2Nathaniel Wilson   Boulder, CO0:38:03.89 207985  990 NCVC/Inova Health System

Men - BG - Junior - 17-18

 Place Points NameCity, StateTime USAC #BibTeam
1Jordan Hechinger   0:46:30.81  981 Gung HO
DNFStephen Solt   DNS  980 South Mountain Cycles

Men - BG - Senior - 19-29

 Place Points NameCity, StateTime USAC #BibTeam
1540.00James Ceccorulli   Portland, OR1:09:04.90 244345  808 Bike Doctor
2Kevin Meysemboarg   1:12:17.11  806 USMC Team MTB Quantico
3Steven Sandor   1:19:07.62  805 
4Nick Mummert   1:23:59.15  802 
5Robert Stillwell   1:26:25.68  807 USMC Team MTB Quantico
6Bobby Miller   1:31:10.12  809 
DNFBrock Darden   DNF  800 
DNFNathan Krueger   DNF  801 
DNFNick Pendleton   DNF  803 
DNFJoshua Thames   DNS  804 

Men - BG - Master - 30-39

 Place Points NameCity, StateTime USAC #BibTeam
1Kevin Clark   1:08:03.44  854 
2542.94Matthew Morrison   Emmaus, PA1:11:05.46 246153  861 
3Jeff Olson   1:12:45.60  867 
4Michel Hall   1:18:06.21  870 
5Leon Norris   1:19:06.18  864 
6Thomas Welsh   1:20:11.95  862 Family Bike
7Steven Ryan   1:21:38.43  868 Team XXL
8Al Fermonch Nillas   1:23:34.76  858 
9Robert Georgantas   1:23:44.53  852 
10Dan Abate   1:25:46.70  863 EX2/More Cowbell
11Chris Moore   1:25:53.51  857 
12572.35Michael Berry   Front Royal, VA1:30:52.88 216377  850 NCVC/Inova Health System
13Jay Divinngarcia   1:31:04.60  866 
14Jay Aument   1:36:33.79  869 
15Kevin Beacham   1:42:50.00  865 
16David Cohen   1:45:27.00  855 
17Derrick Nauflect   1:54:31.16  860 
18Omari Rochon   2:11:48.72  853 Potomac Velo Club
DNFLeo Fitzsimon   DNF  851 
DNFGeoff Kristof   DNF  859 
DNFMike Kegley   DNS  856 

Men - BG - Master - 40-49

 Place Points NameCity, StateTime USAC #BibTeam
1David Harris   0:34:17.62  914 
2Robert Mazzei   0:36:21.70  904 MBM
3Dave McClain   0:37:56.88  906 Moutainside SKI Sport
4David Brown   0:38:31.93  901 
5Kane Davidson   0:38:32.61  903 
6Dominic Nudy JR   0:40:32.64  910 Spokes Racing
7Bill Hermach   0:41:55.35  912 
8David Marchyshyn   0:42:13.56  907 
9Jerry Henrickson   0:42:15.63  908 
10Michael Thompson   0:46:28.39  905 
11Stuart Roberts   0:47:32.88  911 
12582.31Stephen Coleman   Frederick, MD0:48:22.67 245708  909 
13Joel Linnell   1:06:15.26  913 
14590.00Kevin Scott   Hvre De Grace, MD1:12:02.18 90946  900 Team Ascent

Men - BG - Master - 50-99

 Place Points NameCity, StateTime USAC #BibTeam
1Harry Scott   0:39:57.61  962 
2Jerry Bonfiglio   0:44:58.27  963 
3James Palsha   0:46:12.33  960 
4Michael Isennock   0:58:56.71  961 

Men - Pro - Senior

 Place Points NameCity, StateTime USAC #BibTeam
1507.87Christopher Eatough   Ellicott City, MD1:42:23.42 97632  Trek/VW
2524.30Jeff Schalk   Frederick, MD1:43:20.42 169390  Trek-VW
3540.72Brandon Draugelis   Shippensburg, PA1:43:31.87 179397  Bear Naked/Cannondale Mountain Bike Team
4557.15Kyle Hammaker   Marysville, PA1:49:20.67 194193  Trek
5Eric Tourville   1:50:12.40  
6590.00Todd Helmick   Newport News, VA1:58:59.69 181000  Trek/VW
DNFKristopher Auer   Baltimore, MDDNF 2065  ADG/Joe's
DNFHarlan Price   Philadelphia, PADNF 191176  Independent Fabrications

Women - SP - Junior - 1-18

 Place Points NameCity, StateTime USAC #BibTeam
1Rebecca Corbran   1:44:45.91  770 

Women - SP - Senior - 19-29

 Place Points NameCity, StateTime USAC #BibTeam
1Nancy Nowicki   1:12:45.05  704 
2552.50Tracy Posner   Catonsville, MD1:19:47.53 244722  701 
3565.00Stacey Seidel   Ellicott City, MD1:21:03.61 242923  702 
4Dilcia Davis   1:23:21.62  705 
5Darlene Braun   2:05:10.34  703 
DNFMarisa Peacock   Arlington, VADNF 200959  700 Potomac Velo Club

Women - SP - Master - 30-39

 Place Points NameCity, StateTime USAC #BibTeam
1Sarah Lichtenwalner   1:13:45.77  724 Cannondale Grassroots
2Sally McClain   1:15:47.20  723 MTN Side SKI Sport
3560.00Ilana Knopf   Medford, MA1:22:56.35 83056  725 
4Diana Juliano   1:23:02.57  720 
5Jean Thompson   1:28:56.49  722 Thompson Chiropractic Wellness Center
6590.00Beatrice Newbury   Washington, DC1:29:21.39 234723  721 City Bikes

Women - SP - Master - 40-49

 Place Points NameCity, StateTime USAC #BibTeam
1Holly Summers   1:14:57.07  762 
2565.00Laura Tyson   Hope, NJ1:17:49.02 177615  761 Skylands Cycling
3Teresa Wesfall   1:30:24.72  760 

Women - SP - Master - 50-99

 Place Points NameCity, StateTime USAC #BibTeam
1Lynne Collard   1:29:37.08  767 

Women - Single Speed - Senior

 Place Points NameCity, StateTime USAC #BibTeam
1Sarah Hansing   1:14:19.56  402 Trek/VW
2Julie Guy   1:26:17.73  400 THE Bike Lane
3Tracy Betts   1:26:18.69  401 THE Bike Lane

Women - EX - Senior - 19-29

 Place Points NameCity, StateTime USAC #BibTeam
1Melanie Swartz   Reston, VA1:46:53.74 142510  251 HPC/List
2Michelle Schneider   Jersey Shore, PA1:46:55.28 235687  250 Visitpa.com

Women - EX - Master - 40-49

 Place Points NameCity, StateTime USAC #BibTeam
1Kathy Watts   Dover, PA1:12:33.25 37409  416 Wildware Backcountry.com
2Jill Wiest   Lykens, PA1:18:43.90 204453  415 Wild Blues

Women - EX - Master - 50-99

 Place Points NameCity, StateTime USAC #BibTeam
1Patti Harden   Ellicott City, MD1:48:32.37 220824  424 Team BBC

Women - BG - Junior - 1-10

 Place Points NameCity, StateTime USAC #BibTeam
1Hannah Meyers   1:08:54.96  74 
2Alicia Styer   Gettysburg, PA1:09:09.96 245901  75 

Women - BG - Junior - 11-12

 Place Points NameCity, StateTime USAC #BibTeam
1Jennifer Lewis   0:55:40.11  86 
2Sarah Scott   Havre De Grace, MD0:56:22.27 242937  85 Team Ascent

Women - BG - Junior - 15-16

 Place Points NameCity, StateTime USAC #BibTeam
1Haleigh Doetschman   0:47:54.67  785 
2Vanessa Landis   1:02:10.47  786 

Women - BG - Senior - 19-29

 Place Points NameCity, StateTime USAC #BibTeam
1540.00Alexandra Elliott   Auxvasse, MO0:43:38.55 242494  941 Wood-N-Wave
2ANNA Fox   0:45:01.48  943 Team Human Zoom
3Erin Wells   0:49:59.71  942 
4Susanna Adams   0:50:21.37  944 EX2/More Cowbell
DNFJennifer Bodine   Torrance, CADNS 195966  940 XXX Racing-Athletico

Women - BG - Master - 40-49

 Place Points NameCity, StateTime USAC #BibTeam
1Terri Spanogle   0:38:40.22  972 Neve/Inova Health
2565.00Mary Fetrow   Mechanicsburg, PA0:44:56.75 235179  970 Yellow Breeches Racing
3LYNN Grasso   0:47:27.54  971 

Women - Pro - Senior

 Place Points NameCity, StateTime USAC #BibTeam
1540.00Theresa Richardson   Davidsonville, MD2:09:34.31 170227  50 Cannondale MTN Bike Team
2565.00Sonja Evers   Washington, DC2:14:54.58 144435  52 NCVC
3590.00Mandi Riddle   Elkins, WV2:26:03.09 181298  51 Vicious Cycles

Report missing or incorrect license numbers

Volkswagen
Bonk BreakerSierra NevadaSpyShimanoUSACDF
UCI USA Cycling is the official governing body for all disciplines of competitive cycling in the United States. The 501c3, membership-based organization aims both to achieve sustained success in international cycling competition and to grow competitive cycling in America while delivering an exceptional customer experience.
View Children's Online Privacy Protection Policy
US Olympic Committee